Hamilton Island, Australia

2:02 PM AEST on April 29, 2017 (GMT +1000)
Hamilton Island

Weather History for YBHM - December, 2013

Change the Weather History Date:

Friday, December 20, 2013

  Actual Average Record
Temperature  
Mean Temperature 78 °F -  
Max Temperature 82 °F - - ()
Min Temperature 73 °F - - ()
Cooling Degree Days 12    
Growing Degree Days 28 (Base 50)    
Moisture  
Dew Point 68 °F    
Average Humidity 72    
Maximum Humidity 94    
Minimum Humidity 45    
Precipitation  
Precipitation 0.08 in - - ()
Sea Level Pressure  
Sea Level Pressure 29.97 in    
Wind  
Wind Speed 24 mph ()    
Max Wind Speed 34 mph    
Max Gust Speed 40 mph    
Visibility 5.9 miles    
Events      
T = Trace of Precipitation, MM = Missing Value Source: Averaged Metar Reports

Daily Weather History Graph

Daily Weather History Graph

Search for Another Location

Airport or City:

Trip Planner

Search our weather history database for the weather conditions in past years. The results will help you decide how hot, cold, wet, or windy it might be!

Date:

Astronomy

Dec. 20, 2013 Rise Set
Actual Time 5:20 AM AEST 6:42 PM AEST
Civil Twilight 4:55 AM AEST 7:07 PM AEST
Nautical Twilight 4:26 AM AEST 7:36 PM AEST
Astronomical Twilight 3:56 AM AEST 8:07 PM AEST
Moon 8:42 PM AEST (12/20) 7:30 AM AEST (12/20)
Length of Visible Light 14h 11m
Length of Day
13h 22m
Waning Gibbous, 94% of the Moon is Illuminated
Dec 20
Waning Gibbous
Dec 25
Last Quarter
Jan 1
New
Jan 8
First Quarter
Jan 16
Full

Hourly Weather History & Observations

Time (AEST) Temp. Heat Index Dew Point Humidity Pressure Visibility Wind Dir Wind Speed Gust Speed Precip Events Conditions
12:00 AM 77 °F - 65 °F 59% 30.01 in - ESE 27.6 mph - -  
12:00 AM 77.0 °F - 66.2 °F 69% 30.01 in 6.2 mi ESE 27.6 mph - N/A   Unknown
12:30 AM 77.0 °F - 68.0 °F 74% 30.01 in 6.2 mi ESE 25.3 mph - N/A   Unknown
1:00 AM 77.0 °F - 68.0 °F 74% 29.98 in 6.2 mi ESE 28.8 mph - N/A   Unknown
1:30 AM 77.0 °F - 68.0 °F 74% 29.98 in 6.2 mi ESE 24.2 mph - N/A   Unknown
2:00 AM 77.0 °F - 68.0 °F 74% 29.98 in 6.2 mi ESE 27.6 mph - N/A   Unknown
2:30 AM 77.0 °F - 68.0 °F 74% 29.98 in 6.2 mi ESE 24.2 mph - N/A   Unknown
3:00 AM 77 °F - 69 °F 70% 29.96 in - ESE 25.3 mph - -  
3:00 AM 77.0 °F - 69.8 °F 78% 29.95 in 6.2 mi ESE 25.3 mph - N/A   Unknown
3:30 AM 77.0 °F - 69.8 °F 78% 29.95 in 6.2 mi ESE 24.2 mph - N/A   Unknown
4:00 AM 77.0 °F - 68.0 °F 74% 29.95 in 6.2 mi ESE 24.2 mph - N/A   Unknown
4:30 AM 75.2 °F - 69.8 °F 83% 29.95 in 6.2 mi East 31.1 mph - N/A   Unknown
5:00 AM 75.2 °F - 69.8 °F 83% 29.95 in 6.2 mi East 26.5 mph - N/A   Unknown
5:19 AM 75.2 °F - 68.0 °F 78% 29.95 in 6.2 mi ESE 23.0 mph 34.5 mph N/A   Unknown
5:30 AM 77.0 °F - 68.0 °F 74% 29.95 in 6.2 mi ESE 28.8 mph - N/A   Unknown
6:00 AM 77 °F - 65 °F 59% 29.97 in - ESE 28.8 mph - -  
6:00 AM 77.0 °F - 66.2 °F 69% 29.98 in 6.2 mi ESE 28.8 mph - N/A   Unknown
6:32 AM 77.0 °F - 64.4 °F 65% 29.98 in 6.2 mi ESE 28.8 mph 40.3 mph N/A   Unknown
8:34 AM 80.6 °F 82.3 °F 64.4 °F 58% 30.01 in - East 18.4 mph - N/A   Unknown
9:30 AM 80.6 °F 82.3 °F 64.4 °F 58% 30.01 in 6.2 mi ESE 26.5 mph - N/A   Unknown
10:00 AM 82.4 °F 83.9 °F 64.4 °F 54% 30.01 in 6.2 mi ESE 25.3 mph - N/A   Unknown
10:30 AM 82.4 °F 82.9 °F 60.8 °F 48% 30.01 in 6.2 mi ESE 25.3 mph - N/A   Unknown
11:00 AM 82.4 °F 83.4 °F 62.6 °F 51% 30.01 in 6.2 mi ESE 26.5 mph - N/A   Unknown
11:30 AM 82.4 °F 84.6 °F 66.2 °F 58% 30.01 in 6.2 mi ESE 25.3 mph - N/A   Unknown
12:00 PM 82 °F - 64 °F 45% 29.99 in - ESE 24.2 mph - -  
12:00 PM 82.4 °F 83.9 °F 64.4 °F 54% 29.98 in 6.2 mi ESE 24.2 mph - N/A   Unknown
12:30 PM 82.4 °F 84.6 °F 66.2 °F 58% 29.98 in 6.2 mi ESE 24.2 mph - N/A   Unknown
1:00 PM 82.4 °F 85.4 °F 68.0 °F 62% 29.98 in 6.2 mi ESE 23.0 mph - N/A   Unknown
1:30 PM 80.6 °F 83.2 °F 68.0 °F 65% 29.95 in 6.2 mi ESE 25.3 mph - N/A   Unknown
2:00 PM 80.6 °F 82.7 °F 66.2 °F 61% 29.95 in 6.2 mi ESE 26.5 mph - N/A   Unknown
2:30 PM 80.6 °F 82.7 °F 66.2 °F 61% 29.95 in 6.2 mi ESE 27.6 mph - N/A   Unknown
3:00 PM 80 °F - 65 °F 52% 29.93 in - ESE 25.3 mph - -  
3:00 PM 80.6 °F 82.7 °F 66.2 °F 61% 29.92 in 6.2 mi ESE 25.3 mph - N/A   Unknown
3:30 PM 80.6 °F 83.2 °F 68.0 °F 65% 29.92 in 6.2 mi ESE 24.2 mph - N/A   Unknown
4:00 PM 80.6 °F 82.7 °F 66.2 °F 61% 29.92 in 6.2 mi ESE 24.2 mph - N/A   Unknown
4:30 PM 78.8 °F - 68.0 °F 69% 29.95 in 6.2 mi ESE 24.2 mph - N/A   Unknown
5:00 PM 78.8 °F - 68.0 °F 69% 29.92 in 6.2 mi ESE 26.5 mph - N/A   Unknown
5:30 PM 78.8 °F - 68.0 °F 69% 29.95 in 6.2 mi ESE 25.3 mph - N/A   Unknown
5:54 PM 75.2 °F - 69.8 °F 83% 29.92 in 6.2 mi ESE 28.8 mph 40.3 mph N/A   Unknown
6:00 PM 74 °F - 69 °F 81% 29.94 in - East 33.4 mph - -  
6:00 PM 75.2 °F - 69.8 °F 83% 29.95 in 6.2 mi East 33.4 mph - N/A   Unknown
6:17 PM 75.2 °F - 69.8 °F 83% 29.95 in 6.2 mi ESE 25.3 mph - N/A   Unknown
6:33 PM 73.4 °F - 69.8 °F 88% 29.95 in 3.7 mi East 28.8 mph - N/A   Unknown
6:51 PM 73.4 °F - 69.8 °F 88% 29.95 in 6.2 mi East 29.9 mph - N/A   Unknown
7:00 PM 73.4 °F - 69.8 °F 88% 29.95 in 6.2 mi East 34.5 mph - N/A   Unknown
7:30 PM 73.4 °F - 69.8 °F 88% 29.98 in 4.3 mi East 31.1 mph - N/A   Unknown
7:51 PM 73.4 °F - 69.8 °F 88% 29.98 in 6.2 mi ENE 17.3 mph - N/A   Unknown
7:52 PM 73.4 °F - 71.6 °F 94% 29.98 in 5.0 mi ENE 17.3 mph - N/A   Unknown
7:54 PM 73.4 °F - 69.8 °F 88% 29.98 in 3.7 mi ENE 17.3 mph - N/A   Unknown
7:59 PM 73.4 °F - 69.8 °F 88% 29.98 in 3.1 mi ESE 23.0 mph - N/A   Unknown
8:00 PM 73.4 °F - 69.8 °F 88% 29.98 in 3.1 mi ESE 23.0 mph - N/A   Unknown
8:14 PM 73.4 °F - 69.8 °F 88% 29.98 in 6.2 mi ESE 18.4 mph - N/A   Unknown
8:39 PM 75.2 °F - 71.6 °F 89% 29.98 in 6.2 mi ESE 19.6 mph 33.4 mph N/A   Unknown
9:00 PM 76 °F - 69 °F 72% 29.97 in - ESE 28.8 mph - -  
9:00 PM 77.0 °F - 68.0 °F 74% 29.98 in 6.2 mi ESE 28.8 mph - N/A   Unknown
9:30 PM 77.0 °F - 68.0 °F 74% 29.98 in 6.2 mi ESE 27.6 mph - N/A   Unknown
10:00 PM 77.0 °F - 68.0 °F 74% 29.98 in 6.2 mi ESE 25.3 mph - N/A   Unknown
10:30 PM 77.0 °F - 66.2 °F 69% 29.98 in 6.2 mi ESE 24.2 mph - N/A   Unknown
11:00 PM 77.0 °F - 68.0 °F 74% 29.98 in 6.2 mi ESE 24.2 mph - N/A   Unknown
11:30 PM 77.0 °F - 66.2 °F 69% 29.98 in 6.2 mi ESE 25.3 mph - N/A   Unknown